Location: Saint Louis
(38.6272°N, 90.1978°W)
Time: 08:07:28
(UTC-06:00)

Tiangong 1 - Visible Passes

Search period start: 06 March 2015 00:00
Search period end: 16 March 2015 01:00
Orbit: 347 x 360 km, 42.8° (Epoch: 06 March)

Date Brightness Start Highest point End Pass type
(mag) Time Alt. Az. Time Alt. Az. Time Alt. Az.
06 Mar 1.5 05:23:14 25° WNW 05:24:33 43° N 05:27:22 10° ENE visible
07 Mar 3.7 04:16:52 19° ENE 04:16:52 19° ENE 04:17:51 10° ENE visible
07 Mar 2.0 05:48:28 10° WNW 05:51:12 34° N 05:53:56 10° ENE visible
08 Mar 2.2 05:41:56 35° NNE 05:41:56 35° NNE 05:44:12 10° ENE visible
09 Mar 2.1 06:06:54 26° NW 06:07:51 34° N 06:10:35 10° ENE visible
10 Mar 4.3 05:00:12 13° ENE 05:00:12 13° ENE 05:00:36 10° ENE visible
10 Mar 1.8 06:31:45 13° WNW 06:34:12 42° N 06:37:00 10° E visible
11 Mar 2.9 05:24:58 27° NE 05:24:58 27° NE 05:26:48 10° ENE visible
12 Mar 1.6 05:49:41 41° NNW 05:50:10 46° NNE 05:53:01 10° E visible
13 Mar 0.8 06:14:21 23° WNW 06:16:02 87° SSW 06:18:58 10° ESE visible
14 Mar 3.6 05:07:28 20° E 05:07:28 20° E 05:08:35 10° E visible
14 Mar 1.9 06:39:01 10° W 06:41:37 32° SSW 06:44:17 10° SE visible
15 Mar 1.8 05:32:08 42° SE 05:32:08 42° SE 05:34:14 10° ESE visible
